N415DB PACD-PASD

Flight info

Callsign N415DB
Flight time 0h 42m
Altitude 7000
Route MILAM G12 DUGAC
Aircraft C208/L-SBDFGRY/LU2

Departure

Time 2026-05-08 18:52
Airport Cold Bay Airport (PACD)

Arrival

Time 2026-05-08 19:34
Airport Sand Point Airport (PASD)
Time Latitude Longitude Altitude Speed Heading
2026-05-08 18:40 55.20240 -162.72042 141 ft 0 kts 244°
2026-05-08 18:50 55.20222 -162.72070 141 ft 6 kts 216°
2026-05-08 18:50 55.20196 -162.72099 141 ft 7 kts 211°
2026-05-08 18:50 55.20158 -162.72153 141 ft 7 kts 240°
2026-05-08 18:50 55.20130 -162.72278 140 ft 13 kts 248°
2026-05-08 18:51 55.20189 -162.72383 139 ft 18 kts 339°
2026-05-08 18:51 55.20427 -162.72544 142 ft 59 kts 339°
2026-05-08 18:51 55.20906 -162.72868 229 ft 81 kts 340°
2026-05-08 18:51 55.21441 -162.73156 474 ft 81 kts 343°
2026-05-08 18:52 55.22001 -162.73431 686 ft 88 kts 343°
2026-05-08 18:52 55.22627 -162.73738 914 ft 98 kts 343°
2026-05-08 18:52 55.23314 -162.73739 1161 ft 107 kts 30°
2026-05-08 18:52 55.23674 -162.72572 1418 ft 115 kts 74°
2026-05-08 18:53 55.23814 -162.71187 1655 ft 118 kts 76°
2026-05-08 18:53 55.23958 -162.69747 1888 ft 122 kts 77°
2026-05-08 18:53 55.24096 -162.68268 2115 ft 124 kts 77°
2026-05-08 18:53 55.24232 -162.66768 2340 ft 125 kts 77°
2026-05-08 18:54 55.24369 -162.65253 2558 ft 126 kts 77°
2026-05-08 18:54 55.24507 -162.63722 2775 ft 128 kts 78°
2026-05-08 18:54 55.24646 -162.62176 2994 ft 129 kts 77°
2026-05-08 18:54 55.24784 -162.60624 3208 ft 129 kts 77°
2026-05-08 18:55 55.25063 -162.57497 3626 ft 130 kts 77°
2026-05-08 18:55 55.25205 -162.55929 3834 ft 130 kts 77°
2026-05-08 18:55 55.25344 -162.54355 4052 ft 131 kts 77°
2026-05-08 18:56 55.25484 -162.52781 4256 ft 131 kts 77°
2026-05-08 18:56 55.25624 -162.51204 4469 ft 131 kts 77°
2026-05-08 18:56 55.25764 -162.49631 4679 ft 131 kts 77°
2026-05-08 18:56 55.25903 -162.48053 4883 ft 131 kts 77°
2026-05-08 18:57 55.26043 -162.46472 5087 ft 131 kts 77°
2026-05-08 18:57 55.26183 -162.44887 5292 ft 132 kts 77°
2026-05-08 18:57 55.26323 -162.43299 5511 ft 132 kts 77°
2026-05-08 18:57 55.26464 -162.41702 5713 ft 133 kts 77°
2026-05-08 18:58 55.26602 -162.40124 5921 ft 133 kts 77°
2026-05-08 18:58 55.26742 -162.38520 6131 ft 133 kts 76°
2026-05-08 18:58 55.26883 -162.36914 6340 ft 133 kts 76°
2026-05-08 18:58 55.27024 -162.35306 6535 ft 134 kts 76°
2026-05-08 18:59 55.27164 -162.33696 6732 ft 134 kts 76°
2026-05-08 18:59 55.27306 -162.32081 6931 ft 134 kts 76°
2026-05-08 18:59 55.27450 -162.30425 7009 ft 143 kts 76°
2026-05-08 18:59 55.27606 -162.28663 7015 ft 147 kts 77°
2026-05-08 19:00 55.27759 -162.26887 7019 ft 148 kts 77°
2026-05-08 19:00 55.27915 -162.25080 7017 ft 151 kts 77°
2026-05-08 19:00 55.28071 -162.23259 7018 ft 151 kts 77°
2026-05-08 19:00 55.28227 -162.21446 7019 ft 150 kts 77°
2026-05-08 19:01 55.28382 -162.19636 7019 ft 151 kts 77°
2026-05-08 19:01 55.28539 -162.17808 7015 ft 153 kts 77°
2026-05-08 19:01 55.28700 -162.15943 7014 ft 155 kts 77°
2026-05-08 19:01 55.28857 -162.14091 7019 ft 155 kts 77°
2026-05-08 19:02 55.29017 -162.12219 7011 ft 155 kts 77°
2026-05-08 19:02 55.29177 -162.10345 7011 ft 155 kts 77°
2026-05-08 19:02 55.29336 -162.08471 7012 ft 155 kts 77°
2026-05-08 19:02 55.29495 -162.06599 7012 ft 155 kts 77°
2026-05-08 19:03 55.29655 -162.04719 7002 ft 156 kts 77°
2026-05-08 19:03 55.29813 -162.02839 7001 ft 156 kts 77°
2026-05-08 19:03 55.29971 -162.00980 6998 ft 155 kts 77°
2026-05-08 19:03 55.30127 -161.99109 6996 ft 154 kts 77°
2026-05-08 19:04 55.30285 -161.97254 6996 ft 153 kts 77°
2026-05-08 19:04 55.30439 -161.95401 6994 ft 153 kts 77°
2026-05-08 19:04 55.30596 -161.93547 6999 ft 154 kts 77°
2026-05-08 19:04 55.30754 -161.91669 6997 ft 155 kts 77°
2026-05-08 19:05 55.30788 -161.89773 6989 ft 159 kts 98°
2026-05-08 19:05 55.30440 -161.87930 6991 ft 159 kts 104°
2026-05-08 19:05 55.30116 -161.86079 6993 ft 159 kts 102°
2026-05-08 19:05 55.29790 -161.84223 6994 ft 159 kts 103°
2026-05-08 19:06 55.29460 -161.82364 6988 ft 160 kts 103°
2026-05-08 19:06 55.29127 -161.80502 6989 ft 160 kts 103°
2026-05-08 19:06 55.28794 -161.78639 7016 ft 159 kts 103°
2026-05-08 19:06 55.28464 -161.76795 7022 ft 159 kts 103°
2026-05-08 19:07 55.28133 -161.74941 7022 ft 159 kts 103°
2026-05-08 19:07 55.27804 -161.73106 7023 ft 160 kts 103°
2026-05-08 19:07 55.27470 -161.71245 7023 ft 160 kts 103°
2026-05-08 19:07 55.27136 -161.69386 7024 ft 160 kts 103°
2026-05-08 19:08 55.26801 -161.67522 7024 ft 160 kts 103°
2026-05-08 19:08 55.26465 -161.65657 7024 ft 160 kts 103°
2026-05-08 19:08 55.26129 -161.63796 7024 ft 160 kts 103°
2026-05-08 19:08 55.25794 -161.61932 7016 ft 160 kts 103°
2026-05-08 19:09 55.25458 -161.60071 7016 ft 160 kts 103°
2026-05-08 19:09 55.25122 -161.58211 7016 ft 160 kts 103°
2026-05-08 19:09 55.24784 -161.56342 7018 ft 161 kts 103°
2026-05-08 19:09 55.24449 -161.54493 7017 ft 161 kts 103°
2026-05-08 19:10 55.24110 -161.52624 7017 ft 160 kts 103°
2026-05-08 19:10 55.23769 -161.50740 7030 ft 160 kts 103°
2026-05-08 19:10 55.23436 -161.48904 7030 ft 160 kts 103°
2026-05-08 19:10 55.23092 -161.47018 7030 ft 160 kts 102°
2026-05-08 19:11 55.22758 -161.45183 7030 ft 160 kts 102°
2026-05-08 19:11 55.22419 -161.43320 7030 ft 160 kts 103°
2026-05-08 19:11 55.22078 -161.41455 7020 ft 160 kts 103°
2026-05-08 19:11 55.21737 -161.39586 7022 ft 161 kts 102°
2026-05-08 19:12 55.21393 -161.37699 7021 ft 163 kts 102°
2026-05-08 19:12 55.21047 -161.35809 7020 ft 162 kts 103°
2026-05-08 19:12 55.20708 -161.33953 7020 ft 162 kts 103°
2026-05-08 19:12 55.20364 -161.32078 7019 ft 161 kts 102°
2026-05-08 19:13 55.20022 -161.30206 7022 ft 161 kts 103°
2026-05-08 19:13 55.19677 -161.28334 7021 ft 161 kts 102°
2026-05-08 19:13 55.19335 -161.26471 7021 ft 161 kts 102°
2026-05-08 19:13 55.18991 -161.24602 7021 ft 161 kts 103°
2026-05-08 19:14 55.18651 -161.22763 7021 ft 161 kts 102°
2026-05-08 19:14 55.18309 -161.20901 7010 ft 161 kts 103°
2026-05-08 19:14 55.17965 -161.19039 7010 ft 161 kts 103°
2026-05-08 19:14 55.17621 -161.17177 7010 ft 161 kts 103°
2026-05-08 19:15 55.17276 -161.15314 7013 ft 161 kts 103°
2026-05-08 19:15 55.16932 -161.13452 7012 ft 161 kts 103°
2026-05-08 19:15 55.16587 -161.11592 7012 ft 161 kts 103°
2026-05-08 19:15 55.16242 -161.09730 7013 ft 161 kts 103°
2026-05-08 19:16 55.15897 -161.07870 7013 ft 161 kts 102°
2026-05-08 19:16 55.15551 -161.06011 7013 ft 161 kts 102°
2026-05-08 19:16 55.15205 -161.04151 7013 ft 161 kts 102°
2026-05-08 19:16 55.14860 -161.02291 7013 ft 161 kts 103°
2026-05-08 19:17 55.14512 -161.00429 7017 ft 161 kts 103°
2026-05-08 19:17 55.14169 -160.98589 7008 ft 161 kts 102°
2026-05-08 19:17 55.13821 -160.96729 7008 ft 161 kts 102°
2026-05-08 19:17 55.13476 -160.94878 7009 ft 160 kts 103°
2026-05-08 19:18 55.13126 -160.93017 7010 ft 160 kts 103°
2026-05-08 19:18 55.12780 -160.91168 7010 ft 160 kts 103°
2026-05-08 19:18 55.12434 -160.89317 7010 ft 160 kts 103°
2026-05-08 19:18 55.12086 -160.87465 7010 ft 160 kts 102°
2026-05-08 19:19 55.11739 -160.85615 7010 ft 160 kts 103°
2026-05-08 19:19 55.11391 -160.83766 7011 ft 160 kts 103°
2026-05-08 19:19 55.11047 -160.81940 7011 ft 160 kts 102°
2026-05-08 19:19 55.10700 -160.80094 7008 ft 160 kts 102°
2026-05-08 19:20 55.10351 -160.78246 7008 ft 160 kts 102°
2026-05-08 19:20 55.10233 -160.77622 7008 ft 160 kts 103°
2026-05-08 19:20 55.09653 -160.74552 7004 ft 160 kts 103°
2026-05-08 19:20 55.09306 -160.72710 7004 ft 160 kts 103°
2026-05-08 19:21 55.08958 -160.70871 7004 ft 160 kts 103°
2026-05-08 19:21 55.08609 -160.69031 7004 ft 160 kts 103°
2026-05-08 19:21 55.08259 -160.67191 7003 ft 159 kts 103°
2026-05-08 19:21 55.07909 -160.65353 7003 ft 159 kts 103°
2026-05-08 19:22 55.07560 -160.63512 7005 ft 159 kts 103°
2026-05-08 19:22 55.07211 -160.61675 7006 ft 160 kts 103°
2026-05-08 19:22 55.06861 -160.59834 7000 ft 160 kts 103°
2026-05-08 19:22 55.06512 -160.57990 6824 ft 157 kts 102°
2026-05-08 19:23 55.06176 -160.56208 6613 ft 153 kts 102°
2026-05-08 19:23 55.05842 -160.54471 6404 ft 150 kts 103°
2026-05-08 19:23 55.05520 -160.52752 6200 ft 147 kts 98°
2026-05-08 19:23 55.05543 -160.51075 5982 ft 138 kts 68°
2026-05-08 19:24 55.05972 -160.49623 5794 ft 134 kts 53°
2026-05-08 19:24 55.06454 -160.48256 5656 ft 130 kts 55°
2026-05-08 19:24 55.06917 -160.46922 5518 ft 127 kts 56°
2026-05-08 19:24 55.07374 -160.45609 5381 ft 126 kts 56°
2026-05-08 19:25 55.07830 -160.44300 5246 ft 125 kts 56°
2026-05-08 19:25 55.08281 -160.43008 5116 ft 124 kts 56°
2026-05-08 19:25 55.08731 -160.41720 4980 ft 124 kts 56°
2026-05-08 19:25 55.09180 -160.40433 4854 ft 124 kts 56°
2026-05-08 19:26 55.09626 -160.39153 4725 ft 123 kts 57°
2026-05-08 19:26 55.10070 -160.37875 4594 ft 123 kts 57°
2026-05-08 19:26 55.10516 -160.36598 4461 ft 123 kts 57°
2026-05-08 19:26 55.10960 -160.35320 4329 ft 122 kts 57°
2026-05-08 19:27 55.11395 -160.34070 4198 ft 122 kts 57°
2026-05-08 19:27 55.11935 -160.32962 4101 ft 119 kts 31°
2026-05-08 19:27 55.12717 -160.32623 4091 ft 117 kts
2026-05-08 19:27 55.13485 -160.33104 4075 ft 120 kts 332°
2026-05-08 19:28 55.14214 -160.33890 3956 ft 126 kts 334°
2026-05-08 19:28 55.14982 -160.34692 3790 ft 131 kts 334°
2026-05-08 19:28 55.15769 -160.35526 3613 ft 134 kts 333°
2026-05-08 19:28 55.16579 -160.36384 3428 ft 137 kts 332°
2026-05-08 19:29 55.17385 -160.37240 3250 ft 139 kts 333°
2026-05-08 19:29 55.18230 -160.38138 3059 ft 140 kts 334°
2026-05-08 19:29 55.19056 -160.39014 2868 ft 141 kts 333°
2026-05-08 19:29 55.19898 -160.39909 2667 ft 141 kts 332°
2026-05-08 19:30 55.20735 -160.40802 2475 ft 140 kts 333°
2026-05-08 19:30 55.21560 -160.41677 2287 ft 138 kts 332°
2026-05-08 19:30 55.22377 -160.42547 2098 ft 137 kts 332°
2026-05-08 19:30 55.23185 -160.43408 1914 ft 135 kts 332°
2026-05-08 19:31 55.23982 -160.44257 1735 ft 134 kts 332°
2026-05-08 19:31 55.24509 -160.44818 1617 ft 132 kts 332°
2026-05-08 19:31 55.25502 -160.45881 1388 ft 120 kts 332°
2026-05-08 19:31 55.26191 -160.46613 1212 ft 112 kts 333°
2026-05-08 19:32 55.26852 -160.47315 1051 ft 110 kts 331°
2026-05-08 19:32 55.27282 -160.47774 937 ft 106 kts 330°
2026-05-08 19:32 55.27878 -160.48412 787 ft 94 kts 330°
2026-05-08 19:32 55.28404 -160.48976 663 ft 81 kts 331°
2026-05-08 19:33 55.28869 -160.49469 524 ft 75 kts 331°
2026-05-08 19:33 55.29295 -160.49946 440 ft 71 kts 331°
2026-05-08 19:33 55.29714 -160.50383 367 ft 71 kts 331°
2026-05-08 19:33 55.30130 -160.50820 287 ft 69 kts 330°
2026-05-08 19:34 55.30542 -160.51260 199 ft 70 kts 330°
2026-05-08 19:34 55.30955 -160.51700 92 ft 68 kts 328°
2026-05-08 19:34 55.31286 -160.52058 74 ft 42 kts 328°
2026-05-08 19:34 55.31473 -160.52257 73 ft 24 kts 329°
2026-05-08 19:35 55.31586 -160.52329 73 ft 12 kts 36°
2026-05-08 19:35 55.31641 -160.52229 70 ft 11 kts 18°
2026-05-08 19:35 55.31717 -160.52187 74 ft 12 kts 358°
2026-05-08 19:35 55.31752 -160.52197 66 ft 0 kts 333°